User: anonymous   Login
Location: Unspecified
(0.0000°N, 0.0000°E)
Time: 15:24:09
(UTC+00:00)
Language:

A-11 Canister half - Orbit

View from above orbital plane
View from above orbital plane
View from above satellite
View from above satellite

Ground track
Ground track

The orbit data is extracted from the following two-line orbital elements,

1 00053U 60009E   14325.17812473 -.00000084  00000-0  00000+0 0  6024
2 00053 047.2779 054.9817 0100347 187.5512 255.8698 12.17156285420674
Epoch (UTC): 21 November 2014 04:16:29
Eccentricity: 0.0100347
inclination: 47.2779°
perigee height: 1525 km
apogee height: 1685 km
right ascension of ascending node: 54.9817°
argument of perigee: 187.5512°
revolutions per day: 12.17156285
mean anomaly at epoch: 255.8698°
orbit number at epoch: 42067

The dashed part of the orbit path shows where the satellite is in the earth's shadow,  

DLR